Needles, CA

10:14 PM PDT on April 28, 2017 (GMT -0700)
Needles

Weather History for KEED - October, 2013

Change the Weather History Date:

Tuesday, October 29, 2013

  Actual Average Record
Temperature  
Mean Temperature 63 °F 70 °F  
Max Temperature 72 °F 82 °F 94 °F (1990)
Min Temperature 54 °F 57 °F 36 °F (1908)
Degree Days  
Heating Degree Days 2    
Cooling Degree Days 0    
Growing Degree Days 13 (Base 50)    
Moisture  
Dew Point 33 °F    
Average Humidity 34    
Maximum Humidity 51    
Minimum Humidity 21    
Precipitation  
Precipitation 0.00 in 0.01 in 0.04 in (1936)
Month to date precipitation 0.24  
Year to date precipitation 3.69  
Sea Level Pressure  
Sea Level Pressure 29.85 in    
Wind  
Wind Speed 7 mph (SW)    
Max Wind Speed 14 mph    
Max Gust Speed 29 mph    
Visibility 10 miles    
Events      
T = Trace of Precipitation, MM = Missing Value Source: NWS Daily Summary

Daily Weather History Graph

Daily Weather History Graph

Search for Another Location

Airport or City:

Trip Planner

Search our weather history database for the weather conditions in past years. The results will help you decide how hot, cold, wet, or windy it might be!

Date:

Astronomy

Oct. 29, 2013 Rise Set
Actual Time 6:56 AM PDT 5:47 PM PDT
Civil Twilight 6:30 AM PDT 6:13 PM PDT
Nautical Twilight 6:00 AM PDT 6:42 PM PDT
Astronomical Twilight 5:31 AM PDT 7:12 PM PDT
Moon 2:02 AM PDT 2:52 PM PDT
Length of Visible Light 11h 42m
Length of Day
10h 50m
Waning Crescent, 24% of the Moon is Illuminated
Oct 29
Waning Crescent
Nov 3
New
Nov 9
First Quarter
Nov 17
Full
Nov 25
Last Quarter

Hourly Weather History & Observations

Time (PDT) Temp. Dew Point Humidity Pressure Visibility Wind Dir Wind Speed Gust Speed Precip Events Conditions
12:56 AM 61.0 °F 33.1 °F 35% 29.77 in 10.0 mi West 8.1 mph - N/A   Clear
1:56 AM 60.1 °F 33.1 °F 36% 29.78 in 10.0 mi WSW 5.8 mph - N/A   Clear
2:56 AM 59.0 °F 34.0 °F 39% 29.79 in 10.0 mi SW 5.8 mph - N/A   Clear
3:56 AM 57.9 °F 34.0 °F 41% 29.80 in 10.0 mi SSW 5.8 mph - N/A   Partly Cloudy
4:56 AM 57.9 °F 35.1 °F 42% 29.82 in 10.0 mi West 9.2 mph - N/A   Clear
5:56 AM 54.0 °F 35.1 °F 49% 29.83 in 10.0 mi SE 3.5 mph - N/A   Clear
6:56 AM 54.0 °F 36.0 °F 51% 29.85 in 10.0 mi SSE 5.8 mph - N/A   Clear
7:56 AM 55.9 °F 35.1 °F 45% 29.87 in 10.0 mi West 4.6 mph - N/A   Clear
8:56 AM 61.0 °F 35.1 °F 38% 29.88 in 10.0 mi Calm Calm - N/A   Clear
9:56 AM 63.0 °F 36.0 °F 37% 29.88 in 10.0 mi East 5.8 mph - N/A   Clear
10:56 AM 66.0 °F 35.1 °F 32% 29.87 in 10.0 mi Calm Calm - N/A   Clear
11:56 AM 66.9 °F 35.1 °F 31% 29.85 in 10.0 mi Calm Calm - N/A   Mostly Cloudy
1:56 PM 71.1 °F 30.9 °F 23% 29.85 in 10.0 mi WSW 9.2 mph - N/A   Unknown
2:56 PM 72.0 °F 30.0 °F 21% 29.84 in 10.0 mi SSW 13.8 mph 28.8 mph N/A   Mostly Cloudy
3:56 PM 71.1 °F 28.9 °F 21% 29.84 in 10.0 mi SSW 12.7 mph 20.7 mph N/A   Overcast
4:56 PM 70.0 °F 30.0 °F 23% 29.84 in 10.0 mi SW 11.5 mph - N/A   Clear
5:56 PM 68.0 °F 30.0 °F 24% 29.86 in 10.0 mi West 10.4 mph - N/A   Clear
6:56 PM 64.9 °F 30.0 °F 27% 29.88 in 10.0 mi West 6.9 mph - N/A   Clear
7:56 PM 62.1 °F 28.9 °F 29% 29.89 in 10.0 mi West 9.2 mph - N/A   Clear
8:56 PM 61.0 °F 30.0 °F 31% 29.90 in 10.0 mi WSW 9.2 mph - N/A   Clear
9:56 PM 61.0 °F 30.9 °F 32% 29.91 in 10.0 mi West 9.2 mph - N/A   Clear
10:56 PM 60.1 °F 30.9 °F 33% 29.91 in 10.0 mi WSW 10.4 mph - N/A   Clear
11:56 PM 57.0 °F 30.9 °F 37% 29.92 in 10.0 mi SE 6.9 mph - N/A   Clear